Simultaneous Nadir Overpasses (SNOs) Predictions

Prediction of SNOs between GOES-14 and NPP Satellite Orbit:

Table of predicted SNOs for the next 14.0 days since TLE Epoch: 12/23/2023
Index Date Time (GOES-14) GOES-14 Lat,Lon NPP Lat,Lon Distance(km) Time Diff (sec)
1 12/23/2023 08:55:47 -0.08,-108.62 0.84,-112.79 474.49 80
2 12/24/2023 08:39:43 -0.07,-108.62 -0.12,-108.25 41.62 80
3 12/26/2023 20:40:18 0.06,-108.60 -0.02,-109.04 50.31 80
4 12/27/2023 20:24:13 0.05,-108.59 0.95,-104.51 465.69 80
5 12/29/2023 08:43:23 -0.06,-108.61 0.20,-109.79 133.91 80
6 12/30/2023 08:27:19 -0.06,-108.61 -0.83,-105.26 382.14 80
7 12/31/2023 20:46:36 0.07,-108.59 -0.38,-110.57 225.24 80
8 01/01/2024 20:30:33 0.06,-108.59 0.66,-106.05 291.00 80
9 01/03/2024 08:49:41 -0.07,-108.61 0.55,-111.31 308.11 80
10 01/04/2024 08:33:38 -0.07,-108.61 -0.49,-106.79 208.16 80
11 01/05/2024 20:52:55 0.07,-108.60 -0.70,-112.10 399.02 80
